Flag for U.S.A. Weather past 2 weeks in Greensboro, North Carolina, U.S.A.

Now
32 °F

Clear.


Feels Like: 26 °F
Forecast: 26 / 52 °F
Wind: 6 mph from Northeast

Location: Piedmont Triad International Airport

Current Time: Mar 28, 2015 at 11:50:10 PM

Latest Report: Mar 28, 2015 at 10:54 PM


Visibility: 10 mi

Pressure: 30.25 "Hg

Humidity: 36%

Dew point: 8 °F

Location of GreensboroLocation

Historic Weather in Greensboro — Graph

°F

Greensboro temperature yesterday

Maximum temperature yesterday: 62 °F (at 12:54 AM)
Minimum temperature yesterday: 43 °F (at 9:54 PM)
Average temperature yesterday: 48 °F

Past Weeks' High & Low Weather Summary

 TemperatureHumidityPressure
High81 °F (Mar 16, 3:54 PM)100% (Mar 14, 4:03 AM)30.36 "Hg (Mar 14, 4:03 AM)
Low33 °F (Mar 28, 6:54 AM)7% (Mar 16, 3:54 PM)29.66 "Hg (Mar 27, 1:54 AM)
Average53 °F60%30.04 "Hg
* Reported Mar 13 9:54 PM — Mar 28 9:54 PM, Greensboro, Weather by CustomWeather, © 2015

Note: Actual official high and low records may vary slightly from our data, if they occured in-between our weather recording intervals... More about our weather records

Advertising

Greensboro weather history for previous 24 hours

 ConditionsComfort  
Time TempWeatherWind HumidityBarometerVisibility
9:54 PM
Sat, Mar 28
34 °FClear.6 mph34%30.23 "Hg10 mi
8:54 PM36 °FClear.9 mph34%30.19 "Hg10 mi
7:54 PM40 °FPassing clouds.7 mph24%30.15 "Hg10 mi
6:54 PM43 °FPassing clouds.15 mph22%30.11 "Hg10 mi
5:54 PM45 °FPassing clouds.10 mph22%30.07 "Hg10 mi
4:54 PM45 °FPassing clouds.14 mph22%30.05 "Hg10 mi
3:54 PM45 °FPassing clouds.20 mph23%30.04 "Hg10 mi
2:54 PM43 °FPassing clouds.15 mph27%30.04 "Hg10 mi
1:54 PM42 °FPassing clouds.17 mph30%30.05 "Hg10 mi
12:54 PM39 °FPassing clouds.9 mph31%30.05 "Hg10 mi
11:54 AM37 °FScattered clouds.10 mph36%30.06 "Hg10 mi
10:54 AM35 °FScattered clouds.10 mph38%30.06 "Hg10 mi
9:54 AM34 °FScattered clouds.16 mph40%30.05 "Hg10 mi
8:54 AM33 °FScattered clouds.17 mph41%30.02 "Hg10 mi
7:54 AM33 °FPassing clouds.10 mph49%29.99 "Hg10 mi
6:54 AM33 °FPassing clouds.8 mph58%29.96 "Hg10 mi
5:54 AM34 °FPassing clouds.7 mph56%29.91 "Hg10 mi
4:54 AM35 °FPassing clouds.9 mph59%29.89 "Hg10 mi
3:54 AM37 °FPartly cloudy.8 mph62%29.88 "Hg10 mi
2:54 AM38 °FPassing clouds.7 mph63%29.88 "Hg10 mi
1:54 AM40 °FPassing clouds.8 mph60%29.87 "Hg10 mi
12:54 AM42 °FMostly cloudy.3 mph68%29.84 "Hg10 mi
11:54 PM
Fri, Mar 27
43 °FPassing clouds.6 mph71%29.83 "Hg10 mi
Weather by CustomWeather, © 2015

See weather overviewHow to use our weather pages